TimeCST,TemperatureF,Dew PointF,Humidity,Sea Level PressureIn,VisibilityMPH,Wind Direction,Wind SpeedMPH,Gust SpeedMPH,PrecipitationIn,Events,Conditions,WindDirDegrees,DateUTC
12:53 AM,60.1,55.0,83,30.25,10.0,Calm,Calm,-,N/A,,Clear,0,2013-01-23 06:53:00
1:18 AM,62.6,55.4,77,30.25,10.0,NNE,3.5,-,N/A,,Mostly Cloudy,20,2013-01-23 07:18:00
1:53 AM,62.1,55.9,80,30.24,10.0,NE,3.5,-,N/A,,Scattered Clouds,50,2013-01-23 07:53:00
2:19 AM,62.6,57.2,82,30.23,10.0,ENE,6.9,-,N/A,,Mostly Cloudy,70,2013-01-23 08:19:00
2:41 AM,62.6,55.4,77,30.23,10.0,NNE,6.9,-,N/A,,Scattered Clouds,30,2013-01-23 08:41:00
2:53 AM,61.0,55.9,83,30.22,10.0,NE,6.9,-,N/A,,Clear,50,2013-01-23 08:53:00
3:53 AM,61.0,55.9,83,30.22,10.0,ENE,6.9,-,N/A,,Scattered Clouds,60,2013-01-23 09:53:00
4:53 AM,61.0,57.0,87,30.23,10.0,Calm,Calm,-,N/A,,Partly Cloudy,0,2013-01-23 10:53:00
5:20 AM,60.8,57.2,88,30.24,9.0,Calm,Calm,-,N/A,,Mostly Cloudy,0,2013-01-23 11:20:00
5:53 AM,57.9,55.9,93,30.25,9.0,NNW,3.5,-,N/A,,Mostly Cloudy,340,2013-01-23 11:53:00
6:12 AM,59.0,55.4,88,30.25,9.0,Calm,Calm,-,N/A,,Scattered Clouds,0,2013-01-23 12:12:00
6:53 AM,59.0,55.0,87,30.27,10.0,NNW,3.5,-,N/A,,Mostly Cloudy,340,2013-01-23 12:53:00
7:45 AM,59.0,55.4,88,30.28,9.0,NNE,6.9,-,N/A,,Scattered Clouds,20,2013-01-23 13:45:00
7:53 AM,59.0,55.0,87,30.28,9.0,North,5.8,-,N/A,,Scattered Clouds,10,2013-01-23 13:53:00
8:12 AM,60.8,55.4,82,30.29,9.0,North,3.5,-,N/A,,Mostly Cloudy,10,2013-01-23 14:12:00
8:53 AM,61.0,57.0,87,30.30,8.0,North,3.5,-,0.00,,Overcast,10,2013-01-23 14:53:00
9:11 AM,62.6,57.2,82,30.30,8.0,Calm,Calm,-,N/A,,Overcast,0,2013-01-23 15:11:00
9:53 AM,66.0,60.1,81,30.31,10.0,ESE,3.5,-,N/A,,Overcast,120,2013-01-23 15:53:00
10:53 AM,72.0,63.0,73,30.32,10.0,SSE,5.8,-,N/A,,Mostly Cloudy,160,2013-01-23 16:53:00
11:24 AM,73.4,64.4,73,30.32,10.0,SE,10.4,-,N/A,,Overcast,140,2013-01-23 17:24:00
11:35 AM,73.4,64.4,73,30.32,10.0,SSE,8.1,-,N/A,,Overcast,160,2013-01-23 17:35:00
11:53 AM,75.0,64.0,69,30.31,10.0,SSE,9.2,-,N/A,,Overcast,160,2013-01-23 17:53:00
12:53 PM,75.9,63.0,64,30.27,10.0,South,9.2,-,N/A,,Overcast,180,2013-01-23 18:53:00
1:03 PM,75.2,62.6,65,30.27,10.0,South,11.5,-,N/A,,Overcast,170,2013-01-23 19:03:00
1:11 PM,77.0,62.6,61,30.26,10.0,South,9.2,-,N/A,,Overcast,170,2013-01-23 19:11:00
1:53 PM,77.0,62.1,60,30.25,10.0,South,6.9,-,N/A,,Overcast,190,2013-01-23 19:53:00
2:53 PM,79.0,60.1,52,30.22,10.0,SSE,10.4,-,N/A,,Mostly Cloudy,160,2013-01-23 20:53:00
3:53 PM,80.1,60.1,50,30.21,10.0,SE,10.4,-,N/A,,Mostly Cloudy,130,2013-01-23 21:53:00
4:53 PM,79.0,61.0,54,30.21,10.0,SSE,8.1,-,N/A,,Partly Cloudy,160,2013-01-23 22:53:00
5:53 PM,75.9,60.1,58,30.20,10.0,SSE,10.4,-,N/A,,Clear,150,2013-01-23 23:53:00
6:53 PM,73.0,61.0,66,30.22,10.0,SE,10.4,-,N/A,,Clear,140,2013-01-24 00:53:00
7:53 PM,70.0,62.1,76,30.25,10.0,SSE,11.5,-,N/A,,Clear,150,2013-01-24 01:53:00
8:53 PM,66.9,61.0,81,30.26,10.0,ESE,8.1,-,N/A,,Clear,120,2013-01-24 02:53:00
9:53 PM,66.0,61.0,84,30.26,10.0,SE,6.9,-,N/A,,Clear,130,2013-01-24 03:53:00
10:53 PM,64.9,61.0,87,30.26,10.0,SE,8.1,-,N/A,,Clear,140,2013-01-24 04:53:00
11:53 PM,64.9,62.1,90,30.25,10.0,SE,9.2,-,N/A,,Clear,140,2013-01-24 05:53:00